AMC-6 (GE-6)

导读

AMC-6(原编号GE-6)是由SES运营的通信卫星,于2000年10月21日发射升空。该卫星定点于西经76度地球静止轨道,主要为北美地区提供电视广播、宽带网络和卫星通信服务。它搭载了多台C波段转发器,信号覆盖美国、加拿大、墨西哥及加勒比地区,是SES AMC系列中承担北美区域通信传输任务的重要卫星,服役至今持续为广电和通信领域提供稳定支持。

Basic Information
目录编号:
26580
目录名称:
AMC-6 (GE-6)
国际标识:
2000-067A
轨道中心:
EARTH
卫星名称:
AMC-6 (GE-6)
卫星全名:
--
卫星状态:
在轨 (已飞行9410 天)
发射日期:
2000-10-21 UTC
国别 :
(SES)
星等 :
--
Orbit Information
数据来源 国际轨道数据 AOE轨道数据
星历时间 2026-07-27T20:08:58+0800
11小时前
查看轨道信息
2026-07-25T16:00:00+0800
2天前
查看轨道信息
半长轴 42164.56km 42164.504km
偏心率 0.0004272 0.0004198
轨道倾角 0.251° 0.246°
近地点辐角 54.278° 50.031°
升交点赤经 83.951° 83.906°
平近点角 214.145° 154.046°
近地点 35768.41km 35768.666km
远地点 35804.436km 35804.068km
周期 1436.088分钟 1436.085分钟
每日圈数 1.002724 1.002726
Detailed Information
使用方式:
暂无
2D Orbit Map
3D Orbit Map
Orbit Altitude Analysis Chart
Orbit Inclination Analysis Chart
Orbit Comprehensive Analysis Chart
View Comprehensive Chart